EW9036 Weather Reports


Display with metric or nautical units.
time (UTC)temp
F
wind
direction
speed
MPH
gust
MPH
rain 1hr
in
rain 24hr
in
rain mn
in
humidity
%
barometer
mb
20260507171550 63 275 2.0 9.0 0.00 0.19 0.04 41 1006.0
20260507170037 62 262 4.0 14.0 0.00 0.19 0.04 42 1006.2
20260507164547 62 320 2.0 13.0 0.00 0.19 0.04 43 1006.5
20260507163041 61 9 3.0 9.0 0.00 0.19 0.04 49 1006.7
20260507161542 61 269 3.0 12.0 0.00 0.19 0.04 43 1006.8
20260507160108 61 279 5.0 10.0 0.00 0.19 0.04 46 1006.7
20260507154539 60 233 3.0 9.0 0.00 0.19 0.04 53 1006.9
20260507153038 61 187 3.0 10.0 0.00 0.19 0.04 56 1007.0
20260507151535 60 259 2.0 11.0 0.00 0.19 0.04 58 1007.1
20260507150043 60 28 3.0 8.0 0.00 0.19 0.04 59 1007.2
20260507144539 58 275 1.0 7.0 0.00 0.19 0.04 65 1007.3
20260507143039 57 5 2.0 8.0 0.00 0.19 0.04 66 1007.5
20260507141538 57 237 2.0 12.0 0.00 0.19 0.04 66 1007.6
20260507140045 57 273 0.0 9.0 0.00 0.19 0.04 68 1007.7
20260507134542 57 281 2.0 9.0 0.00 0.19 0.04 70 1007.3
20260507133040 56 207 3.0 9.0 0.00 0.19 0.04 70 1007.4
20260507131607 55 171 3.0 8.0 0.00 0.19 0.04 69 1007.6
20260507130039 54 53 3.0 10.0 0.00 0.19 0.04 71 1007.6
20260507124546 52 0 1.0 8.0 0.00 0.19 0.04 79 1007.8
20260507123042 51 0 1.0 5.0 0.00 0.19 0.04 81 1007.8
20260507121541 50 244 1.0 7.0 0.00 0.19 0.04 82 1007.9
20260507120042 50 321 2.0 5.0 0.00 0.19 0.04 85 1007.8
20260507114540 49 295 0.0 3.0 0.00 0.19 0.04 90 1007.9
20260507113102 48 0 0.0 2.0 0.00 0.19 0.04 93 1007.7
20260507111538 48 0 0.0 1.0 0.00 0.19 0.04 94 1007.7
20260507110040 48 0 0.0 1.0 0.00 0.19 0.04 94 1007.5
20260507104552 47 0 0.0 1.0 0.01 0.19 0.04 94 1007.6
20260507103040 47 0 0.0 1.0 0.01 0.19 0.04 93 1007.5
20260507101538 47 0 0.0 1.0 0.01 0.19 0.04 92 1007.1
20260507100051 47 0 0.0 1.0 0.01 0.19 0.04 93 1006.8
20260507094540 47 297 0.0 2.0 0.01 0.18 0.03 92 1006.8
20260507093043 48 200 0.0 2.0 0.01 0.18 0.03 91 1007.0
20260507091544 48 0 0.0 2.0 0.01 0.18 0.03 91 1007.2
20260507090040 48 0 0.0 2.0 0.01 0.18 0.03 90 1007.3
20260507084551 48 241 0.0 2.0 0.00 0.17 0.02 89 1007.4
20260507083044 48 0 0.0 3.0 0.01 0.17 0.02 89 1007.1
20260507081543 48 285 0.0 6.0 0.01 0.17 0.02 89 1006.9
20260507080052 49 294 0.0 5.0 0.01 0.17 0.02 89 1007.0
20260507074545 50 250 1.0 6.0 0.01 0.17 0.02 87 1007.3
20260507073036 51 290 0.0 4.0 0.00 0.16 0.01 86 1006.9
20260507071546 51 39 1.0 3.0 0.00 0.16 0.01 86 1006.6
20260507070054 51 350 0.0 4.0 0.00 0.16 0.01 86 1006.2
20260507064546 51 0 0.0 7.0 0.00 0.16 0.01 86 1006.0
20260507063039 52 225 0.0 2.0 0.00 0.16 0.01 88 1006.1
20260507061540 52 240 0.0 6.0 0.00 0.16 0.01 88 1006.2
20260507060040 53 277 1.0 4.0 0.00 0.16 0.01 87 1006.2
20260507054540 54 0 0.0 4.0 0.00 0.16 0.01 88 1006.2
20260507053040 54 0 1.0 6.0 0.00 0.16 0.01 89 1006.5
20260507051541 55 86 0.0 4.0 0.01 0.16 0.01 90 1006.6
20260507050100 55 258 2.0 7.0 0.01 0.16 0.01 91 1006.4
20260507044549 55 261 0.0 4.0 0.01 0.16 0.01 92 1006.4
20260507043044 56 232 1.0 6.0 0.01 0.16 0.01 91 1006.3
20260507041537 56 0 1.0 7.0 0.00 0.15 0.00 91 1006.4
20260507040045 57 0 1.0 8.0 0.00 0.15 0.00 91 1006.2
20260507034541 57 261 1.0 9.0 0.00 0.15 0.15 92 1006.5
20260507033042 58 279 1.0 8.0 0.00 0.15 0.15 94 1005.8
20260507031537 58 275 1.0 7.0 0.00 0.15 0.15 94 1005.7
20260507030038 59 281 1.0 3.0 0.00 0.15 0.15 95 1005.6
20260507024546 59 271 1.0 5.0 0.00 0.15 0.15 94 1005.2
20260507023040 58 157 1.0 9.0 0.00 0.15 0.15 95 1005.3
20260507021550 58 0 1.0 9.0 0.00 0.15 0.15 94 1005.4
20260507020040 58 0 0.0 5.0 0.00 0.15 0.15 94 1005.3
20260507014537 58 223 1.0 7.0 0.00 0.15 0.15 95 1005.3
20260507013038 58 0 1.0 5.0 0.00 0.15 0.15 95 1005.3
20260507011545 58 174 1.0 7.0 0.00 0.15 0.15 95 1005.3
20260507010045 58 198 1.0 6.0 0.00 0.15 0.15 95 1005.4
20260507004540 58 208 0.0 4.0 0.00 0.15 0.15 95 1005.5
20260507003040 58 159 0.0 7.0 0.01 0.15 0.15 95 1005.4
20260507001542 58 129 2.0 9.0 0.01 0.15 0.15 94 1005.3
20260507000042 58 0 1.0 6.0 0.02 0.15 0.15 94 1005.2
20260506234550 58 0 1.0 5.0 0.05 0.15 0.15 95 1005.1
20260506233038 59 142 0.0 6.0 0.04 0.14 0.14 94 1005.2
20260506231539 59 0 0.0 7.0 0.04 0.14 0.14 94 1005.0
20260506230037 59 175 1.0 7.0 0.03 0.13 0.13 94 1005.0
20260506224536 59 0 0.0 5.0 0.01 0.10 0.10 94 1005.3
20260506223047 59 155 2.0 6.0 0.01 0.10 0.10 93 1005.3
20260506221539 59 0 0.0 6.0 0.01 0.10 0.10 93 1005.3
20260506220038 60 184 0.0 4.0 0.01 0.10 0.10 93 1005.5
20260506214540 59 15 1.0 8.0 0.01 0.09 0.09 92 1005.5
20260506213042 59 188 0.0 6.0 0.01 0.09 0.09 92 1005.8
20260506211543 59 0 1.0 7.0 0.01 0.09 0.09 92 1005.9
20260506210041 59 226 1.0 10.0 0.02 0.09 0.09 92 1005.9
20260506204550 59 63 2.0 8.0 0.02 0.08 0.08 92 1006.1
20260506203037 60 212 1.0 15.0 0.02 0.08 0.08 92 1006.2
20260506201539 60 256 2.0 8.0 0.04 0.08 0.08 91 1006.1
20260506200057 60 102 2.0 10.0 0.05 0.07 0.07 90 1006.1
20260506194548 61 0 2.0 6.0 0.05 0.06 0.06 90 1006.2
20260506193038 62 0 1.0 8.0 0.06 0.06 0.06 88 1006.2
20260506191538 63 0 0.0 3.0 0.03 0.03 0.03 86 1006.1
20260506190039 64 140 0.0 8.0 0.02 0.02 0.02 83 1006.1
20260506184536 65 190 3.0 16.0 0.01 0.01 0.01 78 1006.4
20260506183057 67 193 1.0 8.0 0.00 0.00 0.00 76 1006.7
20260506181544 69 227 4.0 13.0 0.00 0.00 0.00 68 1006.5
20260506180041 70 273 3.0 27.0 0.00 0.00 0.00 63 1006.6
20260506174538 71 191 6.0 20.0 0.00 0.00 0.00 60 1006.5
20260506173037 72 177 6.0 18.0 0.00 0.00 0.00 58 1006.6